レモン彗星

C/2018 U1 ( Lemmon )

English version
Home page
Updated on February 9, 2019

---------------------------------------------------------------------

・ プロフィール

発見日 2018年10月27日
発見光度 20.0等
発見者 R. A. Kowalski (Mount Lemmon Survey)

・ 写真集

・ 軌道要素

Epoch 2021 Nov. 2.0 TT = JDT 2459520.5
T 2021 Nov. 1.48545 TT                                  MPCW
q   4.9816788            (2000.0)            P               Q
z  -0.0008175      Peri.  180.53303     -0.25342214     -0.30159966
 +/-0.0004017      Node    75.48666     -0.88398118     +0.45809539
e   1.0040723      Incl.  108.29822     -0.39287975     -0.83617358
From 159 observations 2018 Oct. 27-Nov. 20, mean residual 0".4.

・ 星図

・ 光度変化

        m1 = 5.0 + 5 logΔ + 10.0 log r

---------------------------------------------------------------------

軌道要素はM.P.E.C. 2018-W42に掲載されたものです。
星図はステラナビゲータ Ver.10 (アストロアーツ) で作成したものです。
光度グラフはComet for Windowsで作成したものです。

---------------------------------------------------------------------

Copyright(C) Seiichi Yoshida (comet@aerith.net). All rights reserved.